Tracking 29892 objects as of 21-Nov-2024
HD Live streaming from Space Station
objects crossing your sky now

STARLINK-5641

Track STARLINK-5641 now!
10-day predictions
STARLINK-5641 is classified as:


NORAD ID: 55359
Int'l Code: 2023-013AE
Perigee: 565.4 km
Apogee: 567.1 km
Inclination: 43.0 °
Period: 95.8 minutes
Semi major axis: 6937 km
RCS: Unknown
Launch date: January 26, 2023
Source: United States (US)
Launch site: AIR FORCE EASTERN TEST RANGE (AFETR)
Your satellite tracking list
Your tracking list is empty




NASA's NSSDC Master Catalog

Two Line Element Set (TLE):
1 55359U 23013AE  24324.44131500  .00000759  00000-0  71293-4 0  9996
2 55359  43.0042   2.3625 0001227 260.2925  99.7779 15.02531727100651
Source of the keplerian elements: AFSPC